Location: *
(2.7500°S, 66.6833°W)
Time: 00:24:42
(UTC+00:00)

Meteor 2-2 Rocket - Pass Details

Date: 24 May 2024
Orbit: 851 x 928 km, 81.3° (Epoch: 13 June)

Event Time Altitude Azimuth Distance (km) Brightness Sun altitude
Rises 23:13:06 0° 175° (S) 3,547 7.2 -12.5°
Reaches altitude 10° 23:15:38 10° 170° (S) 2,611 6.5 -13.1°
Maximum altitude 23:21:25 52° 95° (E) 1,135 4.5 -14.5°
Drops below altitude 10° 23:27:14 10° 20° (NNE) 2,620 6.8 -15.8°
Sets 23:29:46 0° 15° (NNE) 3,560 7.5 -16.4°
